Observations for Trim Market St
| Time | AQI | Temp °C | Hum % | Pres Pa | CO μg/m³ | H₂S μg/m³ | NO μg/m³ | NO₂ μg/m³ | O₃ μg/m³ | SO₂ μg/m³ | PM1 μg/m³ | PM2.5 μg/m³ | PM10 μg/m³ |
|---|---|---|---|---|---|---|---|---|---|---|---|---|---|
| Tuesday 18 August 2026 | |||||||||||||
| 11:38 | 2 | 23.6 | 54 | 55,664 | 0 | 0 | 2.65 | 10.63 | 61.17 | 0 | 0 | 1.78 | 1.96 |
| 11:37 | 2 | 23.6 | 54 | 55,705 | 0 | 0 | 2.47 | 9.36 | 57.13 | 0 | 0 | 1.78 | 2.47 |
| 11:36 | 2 | 23.6 | 54 | 55,583 | 0 | 0 | 2.46 | 12.13 | 59.11 | 0 | 0.71 | 2.28 | 2.47 |
| 11:35 | 2 | 23.6 | 54 | 55,612 | 0.06 | 0 | 2.36 | 8.46 | 51.5 | 0 | 0 | 1.77 | 1.95 |
| 11:34 | 2 | 23.6 | 54 | 55,657 | 0 | 0 | 2.24 | 10.15 | 59.78 | 0 | 0 | 1.77 | 1.95 |
| 11:33 | 2 | 23.6 | 54 | 55,687 | 0 | 0 | 2.73 | 12.29 | 59.65 | 0 | 0 | 1.77 | 1.95 |
| 11:32 | 2 | 23.6 | 54 | 55,624 | 0 | 0 | 2.81 | 12.64 | 64.44 | 0 | 0 | 1.77 | 1.95 |
| 11:28 | 2 | 23.7 | 54 | 55,629 | 0 | 0 | 3.3 | 12.36 | 58.06 | 0 | 0 | 2.28 | 2.48 |
| 11:27 | 2 | 23.7 | 54 | 55,650 | 0 | 0 | 3.4 | 12.4 | 58 | 0 | 0 | 1.76 | 2.48 |
| 11:26 | 2 | 23.7 | 54 | 55,697 | 0 | 0 | 3.76 | 13.03 | 52.27 | 0 | 0 | 2.27 | 2.49 |
| 11:25 | 2 | 23.6 | 54 | 55,764 | 0 | 0 | 3.9 | 12.78 | 49.58 | 0 | 0.71 | 3.28 | 3.93 |
| 11:24 | 2 | 23.6 | 55 | 55,849 | 0.03 | 0 | 3.89 | 12.59 | 44.16 | 0 | 0 | 2.25 | 3.22 |
| 11:22 | 2 | 23.6 | 55 | 56,040 | 0.01 | 0 | 3.62 | 13.16 | 52.67 | 0 | 0 | 2.25 | 2.51 |
| 11:21 | 2 | 23.5 | 55 | 56,130 | 0 | 0 | 3.32 | 11.67 | 56.06 | 0 | 0 | 1.74 | 1.8 |
| 11:20 | 2 | 23.5 | 55 | 56,241 | 0 | 0 | 2.9 | 12.42 | 57.61 | 0 | 0 | 2.24 | 2.52 |
| 11:17 | 2 | 23.4 | 55 | 56,252 | 0.04 | 0 | 2.94 | 13.99 | 59.27 | 0 | 0.71 | 2.75 | 3.23 |
| 11:14 | 2 | 23.4 | 55 | 56,287 | 0 | 0 | 3.14 | 12.82 | 66.28 | 0 | 0 | 2.23 | 2.52 |
| 11:10 | 2 | 23.3 | 55 | 56,671 | 0.04 | 0 | 3.32 | 13.34 | 68.42 | 0 | 0.71 | 3.75 | 5.39 |
| 11:09 | 2 | 23.2 | 55 | 56,772 | 0 | 0 | 3.38 | 12.92 | 71.85 | 0 | 0 | 2.23 | 3.96 |
| 11:06 | 2 | 23.1 | 55 | 57,078 | 0.04 | 0 | 3.06 | 16.95 | 66.29 | 0 | 0.71 | 2.73 | 3.96 |